KM4NDN Weather Reports


Display with metric or nautical units.
time (UTC)temp
F
wind
direction
speed
MPH
gust
MPH
rain 1hr
in
rain 24hr
in
rain mn
in
humidity
%
barometer
mb
20260503220231 60 213 10.0 17.0 0.00 0.00 0.00 36 1010.0
20260503215727 60 186 9.0 22.0 0.00 0.00 0.00 36 1010.1
20260503215224 61 210 12.0 17.0 0.00 0.00 0.00 34 1010.1
20260503214722 61 226 9.0 21.0 0.00 0.00 0.00 36 1009.9
20260503214219 61 223 10.0 11.0 0.00 0.00 0.00 37 1010.1
20260503213717 60 237 12.0 15.0 0.00 0.00 0.00 36 1010.1
20260503213214 61 239 14.0 16.0 0.00 0.00 0.00 34 1010.0
20260503212711 61 216 9.0 13.0 0.00 0.00 0.00 37 1010.0
20260503212208 62 235 10.0 13.0 0.00 0.00 0.00 36 1010.2
20260503211706 61 215 14.0 19.0 0.00 0.00 0.00 35 1010.1
20260503211201 61 218 13.0 23.0 0.00 0.00 0.00 36 1010.0
20260503210658 61 201 19.0 25.0 0.00 0.00 0.00 33 1010.1
20260503210155 62 252 14.0 16.0 0.00 0.00 0.00 34 1010.2
20260503205650 61 200 8.0 21.0 0.00 0.00 0.00 35 1010.4
20260503205147 62 214 16.0 18.0 0.00 0.00 0.00 33 1010.3
20260503204643 62 223 13.0 23.0 0.00 0.00 0.00 34 1010.2
20260503204141 62 239 15.0 19.0 0.00 0.00 0.00 34 1010.3
20260503203638 62 275 13.0 25.0 0.00 0.00 0.00 34 1010.5
20260503203136 62 221 15.0 19.0 0.00 0.00 0.00 33 1010.5
20260503202633 62 221 12.0 16.0 0.00 0.00 0.00 35 1010.5
20260503202131 61 212 12.0 26.0 0.00 0.00 0.00 35 1010.5
20260503201628 61 242 13.0 14.0 0.00 0.00 0.00 36 1010.5
20260503201126 60 223 12.0 21.0 0.00 0.00 0.00 34 1010.7
20260503200621 61 223 12.0 23.0 0.00 0.00 0.00 33 1010.7
20260503200118 61 249 17.0 27.0 0.00 0.00 0.00 34 1010.5
20260503195615 62 222 13.0 18.0 0.00 0.00 0.00 33 1010.8
20260503195112 61 243 15.0 23.0 0.00 0.00 0.00 34 1010.7
20260503194609 61 213 16.0 26.0 0.00 0.00 0.00 33 1010.7
20260503194104 61 236 15.0 22.0 0.00 0.00 0.00 35 1010.9
20260503193601 61 215 16.0 22.0 0.00 0.00 0.00 35 1011.0
20260503193056 62 248 16.0 19.0 0.00 0.00 0.00 32 1011.2
20260503192552 62 223 18.0 24.0 0.00 0.00 0.00 34 1011.0
20260503192048 62 220 11.0 16.0 0.00 0.00 0.00 36 1011.3
20260503191545 61 249 15.0 19.0 0.00 0.00 0.00 35 1011.4
20260503191042 61 175 13.0 18.0 0.00 0.00 0.00 33 1011.3
20260503190539 61 225 9.0 21.0 0.00 0.00 0.00 35 1011.6
20260503190037 61 233 12.0 18.0 0.00 0.00 0.00 34 1011.4
20260503185533 61 241 19.0 25.0 0.00 0.00 0.00 33 1011.4
20260503185032 61 207 12.0 15.0 0.00 0.00 0.00 34 1011.9
20260503184529 61 236 11.0 21.0 0.00 0.00 0.00 35 1011.8
20260503184026 61 192 11.0 17.0 0.00 0.00 0.00 36 1011.8
20260503183522 61 237 17.0 29.0 0.00 0.00 0.00 34 1012.0
20260503183019 61 245 15.0 18.0 0.00 0.00 0.00 36 1011.8
20260503182518 61 275 8.0 21.0 0.00 0.00 0.00 37 1011.9
20260503182015 61 225 9.0 11.0 0.00 0.00 0.00 36 1011.8
20260503181512 61 182 18.0 21.0 0.00 0.00 0.00 35 1012.0
20260503181008 61 248 18.0 24.0 0.00 0.00 0.00 36 1011.9
20260503180506 60 214 10.0 21.0 0.00 0.00 0.00 37 1012.1
20260503180003 61 269 17.0 19.0 0.00 0.00 0.00 34 1012.1
20260503175501 60 202 9.0 14.0 0.00 0.00 0.00 37 1012.2
20260503174956 60 207 9.0 14.0 0.00 0.00 0.00 38 1012.4
20260503174455 61 252 14.0 17.0 0.00 0.00 0.00 36 1012.3
20260503173950 60 201 10.0 13.0 0.00 0.00 0.00 35 1012.3
20260503173446 60 266 12.0 14.0 0.00 0.00 0.00 37 1012.6
20260503172943 60 220 23.0 25.0 0.00 0.00 0.00 34 1012.8
20260503172440 60 233 16.0 21.0 0.00 0.00 0.00 37 1012.6
20260503171937 60 255 14.0 18.0 0.00 0.00 0.00 41 1012.8
20260503171433 60 242 13.0 16.0 0.00 0.00 0.00 40 1012.7
20260503170931 60 291 9.0 14.0 0.00 0.00 0.00 44 1012.9
20260503170427 59 245 14.0 16.0 0.00 0.00 0.00 41 1012.9
20260503150819 55 220 15.0 17.0 0.00 0.00 0.00 47 1014.1
20260503150315 54 233 9.0 15.0 0.00 0.00 0.00 48 1014.0
20260503140240 51 220 10.0 16.0 0.00 0.00 0.00 50 1014.2
20260503131209 48 240 9.0 18.0 0.00 0.00 0.00 54 1014.2
20260503130707 47 221 7.0 16.0 0.00 0.00 0.00 53 1014.3
20260503130204 47 196 8.0 11.0 0.00 0.00 0.00 55 1014.5
20260503120130 42 222 6.0 10.0 0.00 0.00 0.00 63 1014.8
20260503110557 36 197 2.0 3.0 0.00 0.00 0.00 73 1014.4
20260503090444 37 191 4.0 7.0 0.00 0.00 0.00 74 1014.4
20260503081410 37 216 5.0 6.0 0.00 0.00 0.00 73 1014.4
20260503080907 37 200 3.0 4.0 0.00 0.00 0.00 73 1014.5
20260503080404 38 211 3.0 4.0 0.00 0.00 0.00 72 1014.4
20260503072840 39 211 5.0 6.0 0.00 0.00 0.00 69 1014.5
20260503072337 39 215 4.0 6.0 0.00 0.00 0.00 69 1014.4
20260503071833 39 205 2.0 6.0 0.00 0.00 0.00 69 1014.4
20260503071331 39 210 5.0 6.0 0.00 0.00 0.00 68 1014.4
20260503070827 39 220 6.0 7.0 0.00 0.00 0.00 68 1014.8
20260503070326 39 218 2.0 4.0 0.00 0.00 0.00 69 1014.6
20260503060250 39 191 2.0 4.0 0.00 0.00 0.00 68 1015.0
20260503054737 40 200 2.0 4.0 0.00 0.00 0.00 68 1014.9
20260503054234 40 208 2.0 3.0 0.00 0.00 0.00 68 1014.9
20260503053732 39 198 3.0 4.0 0.00 0.00 0.00 69 1014.9
20260503053231 39 206 3.0 3.0 0.00 0.00 0.00 70 1014.9
20260503052726 40 192 3.0 4.0 0.00 0.00 0.00 70 1014.8
20260503052223 40 208 3.0 4.0 0.00 0.00 0.00 70 1015.0
20260503051718 40 202 1.0 3.0 0.00 0.00 0.00 70 1015.0
20260503051217 40 203 2.0 3.0 0.00 0.00 0.00 70 1014.9
20260503050713 40 216 3.0 4.0 0.00 0.00 0.00 71 1015.0
20260503050209 40 213 2.0 3.0 0.00 0.00 0.00 71 1014.9
20260503045707 40 194 2.0 3.0 0.00 0.00 0.00 70 1014.9
20260503045204 40 180 2.0 3.0 0.00 0.00 0.00 70 1015.2
20260503044700 41 200 2.0 3.0 0.00 0.00 0.00 70 1015.2
20260503044158 41 212 2.0 3.0 0.00 0.00 0.00 69 1015.2
20260503043654 41 207 2.0 4.0 0.00 0.00 0.00 68 1014.9
20260503043152 41 212 2.0 2.0 0.00 0.00 0.00 68 1014.9
20260503042648 41 203 3.0 3.0 0.00 0.00 0.00 68 1015.0
20260503042144 41 211 2.0 4.0 0.00 0.00 0.00 67 1015.0
20260503041641 41 219 3.0 4.0 0.00 0.00 0.00 67 1015.0
20260503041139 41 234 5.0 7.0 0.00 0.00 0.00 68 1015.1
20260503040636 41 227 4.0 6.0 0.00 0.00 0.00 68 1014.9
20260503040133 41 228 4.0 4.0 0.00 0.00 0.00 69 1015.1
20260503035629 41 225 4.0 4.0 0.00 0.18 0.18 69 1015.0
20260503035127 42 217 3.0 4.0 0.00 0.18 0.18 70 1015.3
20260503034625 42 190 2.0 2.0 0.00 0.18 0.18 69 1015.0
20260503034122 42 203 2.0 3.0 0.00 0.18 0.18 69 1015.2
20260503033619 42 183 2.0 3.0 0.00 0.18 0.18 68 1015.2
20260503033116 42 178 2.0 3.0 0.00 0.18 0.18 68 1015.2
20260503032615 42 184 2.0 2.0 0.00 0.18 0.18 68 1015.0
20260503032113 42 184 1.0 2.0 0.00 0.18 0.18 67 1015.2
20260503031610 42 185 1.0 2.0 0.00 0.18 0.18 67 1015.0
20260503031108 43 185 2.0 3.0 0.00 0.18 0.18 67 1015.3
20260503030603 43 194 2.0 3.0 0.00 0.18 0.18 67 1015.2
20260503030100 43 197 2.0 2.0 0.00 0.18 0.18 66 1015.3
20260503025557 43 199 2.0 2.0 0.00 0.18 0.18 66 1015.3
20260503025055 43 200 1.0 2.0 0.00 0.18 0.18 66 1015.4
20260503024550 43 178 2.0 2.0 0.00 0.18 0.18 65 1015.3
20260503024048 43 168 3.0 3.0 0.00 0.18 0.18 65 1015.6
20260503023544 43 195 2.0 2.0 0.00 0.18 0.18 65 1015.5
20260503023042 43 195 2.0 3.0 0.00 0.18 0.18 64 1015.3
20260503022538 43 195 2.0 3.0 0.00 0.18 0.18 64 1015.4
20260503022033 43 184 2.0 3.0 0.00 0.18 0.18 64 1015.4
20260503021530 43 184 3.0 3.0 0.00 0.18 0.18 63 1015.5
20260503021027 43 177 2.0 2.0 0.00 0.18 0.18 64 1015.3
20260503020524 43 178 1.0 2.0 0.00 0.18 0.18 63 1015.4
20260503020021 43 173 1.0 2.0 0.00 0.18 0.18 65 1015.4
20260503015518 43 172 1.0 2.0 0.00 0.18 0.18 66 1015.3
20260503015015 43 172 2.0 2.0 0.00 0.18 0.18 66 1015.2
20260503014511 43 183 2.0 2.0 0.00 0.18 0.18 65 1015.3
20260503014009 43 183 2.0 2.0 0.00 0.18 0.18 65 1015.3
20260503013506 44 183 2.0 2.0 0.00 0.18 0.18 64 1015.4
20260503013003 44 191 1.0 1.0 0.00 0.18 0.18 62 1015.3
20260503012501 44 192 2.0 2.0 0.00 0.18 0.18 62 1015.4
20260503011956 44 193 2.0 1.0 0.00 0.18 0.18 61 1015.3
20260503011454 44 193 1.0 2.0 0.00 0.18 0.18 62 1015.3
20260503010951 44 198 1.0 2.0 0.00 0.18 0.18 62 1015.3
20260503010447 44 198 1.0 2.0 0.00 0.18 0.18 62 1015.5
20260503005944 44 198 1.0 2.0 0.00 0.18 0.18 62 1015.1
20260503005442 44 198 1.0 1.0 0.00 0.18 0.18 61 1015.1
20260503004938 44 198 3.0 3.0 0.00 0.18 0.18 60 1015.1
20260503004435 44 198 2.0 2.0 0.00 0.18 0.18 59 1015.1
20260503003933 44 198 2.0 2.0 0.00 0.18 0.18 58 1015.2
20260503003429 44 198 1.0 2.0 0.00 0.18 0.18 57 1015.1
20260503002927 44 197 2.0 2.0 0.00 0.18 0.18 56 1015.1
20260503002424 44 198 1.0 2.0 0.00 0.18 0.18 55 1015.0
20260503001920 44 198 2.0 2.0 0.00 0.18 0.18 55 1015.0
20260503001416 44 198 2.0 2.0 0.00 0.18 0.18 54 1015.0
20260503000914 45 198 2.0 2.0 0.00 0.18 0.18 55 1014.9
20260503000411 45 198 1.0 2.0 0.00 0.18 0.18 54 1015.0
20260502235908 45 198 1.0 1.0 0.00 0.18 0.18 55 1015.1
20260502235405 45 198 1.0 1.0 0.00 0.18 0.18 57 1015.0
20260502234903 45 198 2.0 2.0 0.00 0.18 0.18 57 1015.1
20260502234359 45 198 1.0 1.0 0.00 0.18 0.18 57 1015.0
20260502233856 45 198 1.0 2.0 0.00 0.18 0.18 55 1015.2
20260502233352 45 198 1.0 1.0 0.00 0.18 0.18 58 1015.1
20260502232849 45 198 0.0 1.0 0.00 0.18 0.18 53 1015.2
20260502232345 45 198 0.0 1.0 0.00 0.18 0.18 53 1014.8
20260502231842 45 198 1.0 2.0 0.00 0.18 0.18 55 1015.1
20260502231340 46 199 1.0 2.0 0.00 0.18 0.18 59 1015.0
20260502230838 46 199 0.0 0.0 0.00 0.18 0.18 54 1015.1
20260502230336 46 199 0.0 1.0 0.00 0.18 0.18 50 1015.0
20260502225832 46 199 0.0 1.0 0.00 0.18 0.18 50 1015.1
20260502225329 46 199 0.0 0.0 0.00 0.18 0.18 48 1015.1
20260502224826 46 199 2.0 2.0 0.00 0.18 0.18 49 1015.3
20260502224321 46 219 2.0 2.0 0.00 0.18 0.18 51 1015.0
20260502223820 46 224 1.0 1.0 0.00 0.18 0.18 51 1015.2
20260502223317 46 227 1.0 2.0 0.00 0.18 0.18 50 1015.2
20260502222815 46 267 0.0 1.0 0.00 0.18 0.18 50 1015.3
20260502222312 46 267 0.0 2.0 0.00 0.18 0.18 48 1015.2
20260502221808 46 269 1.0 2.0 0.00 0.18 0.18 51 1015.2
20260502221304 45 247 1.0 1.0 0.00 0.18 0.18 55 1015.3
20260502220801 45 267 3.0 3.0 0.00 0.18 0.18 53 1015.2